Flag for USA

Past Weather in 32°17'45"N, 81°14'07"W, USA — Yesterday and Last 2 Weeks

Now
93 °F

Sunny.


Feels Like: 96 °F
Forecast: 92 / 78 °F
Wind: 9 mph from Southwest

Location: Hunter U. S. Army Airfield

Current Time: Jul 12, 2020 at 8:08:32 pm

Latest Report: Jul 12, 2020 at 6:56 pm


Visibility: 10 mi

Pressure: 29.77 "Hg

Humidity: 40%

Dew Point: 65 °F

Location of 32°17'45"N, 81°14'07"WLocation

Past Weather in 32°17'45"N, 81°14'07"W — Graph

°F

32°17'45"N, 81°14'07"W Temperature Yesterday

Maximum temperature yesterday: 98 °F (at 4:56 pm)
Minimum temperature yesterday: 77 °F (at 2:56 am)
Average temperature yesterday: 86 °F

High & Low Weather Summary for the Past Weeks

 TemperatureHumidityPressure
High99 °F (Jun 30, 4:56 pm)94% (Jul 3, 5:56 am)30.05 "Hg (Jul 3, 5:56 am)
Low72 °F (Jul 2, 5:56 am)37% (Jul 12, 4:56 pm)29.77 "Hg (Jul 12, 5:56 pm)
Average82 °F76%29.90 "Hg
* Reported Jun 27 6:56 pm — Jul 12 6:56 pm, 32°17'45"N, 81°14'07"W. Weather by CustomWeather, © 2020

Note: Actual official high and low records may vary slightly from our data, if they occured in-between our weather recording intervals... More about our weather records

32°17'45"N, 81°14'07"W Weather History for the Previous 24 Hours

Scroll right to see more
 ConditionsComfort  
Time TempWeatherWind HumidityBarometerVisibility
6:56 pm
Sun, Jul 12
93 °FSunny.9 mph40%29.77 "Hg10 mi
5:56 pm95 °FSunny.7 mph38%29.77 "Hg10 mi
4:56 pm96 °FSunny.7 mph37%29.79 "Hg10 mi
3:56 pm96 °FSunny.6 mph38%29.80 "Hg10 mi
2:56 pm96 °FPassing clouds.8 mph39%29.81 "Hg10 mi
1:56 pm95 °FBroken clouds.10 mph42%29.83 "Hg10 mi
12:56 pm94 °FScattered clouds.7 mph40%29.83 "Hg10 mi
11:56 am92 °FScattered clouds.7 mph45%29.83 "Hg10 mi
11:00 am91 °FPassing clouds.6 mph52%29.84 "Hg10 mi
10:56 am91 °FPassing clouds.3 mph53%29.84 "Hg10 mi
10:24 am90 °FPassing clouds.No wind59%29.84 "Hg10 mi
10:22 am90 °FPassing clouds.No wind59%29.84 "Hg10 mi
9:56 am88 °FSunny.3 mph63%29.83 "Hg10 mi
8:56 am83 °FSunny.No wind79%29.84 "Hg10 mi
7:56 am79 °FSunny.No wind92%29.83 "Hg10 mi
6:56 am75 °FSunny.No wind92%29.83 "Hg10 mi
5:56 am75 °FClear.6 mph92%29.82 "Hg10 mi
4:56 am76 °FClear.3 mph91%29.80 "Hg10 mi
3:56 am78 °FClear.5 mph91%29.81 "Hg10 mi
2:56 am78 °FClear.3 mph90%29.82 "Hg10 mi
1:56 am80 °FClear.No wind88%29.84 "Hg10 mi
12:56 am82 °FClear.No wind84%29.85 "Hg10 mi
11:56 pm
Sat, Jul 11
83 °FClear.3 mph80%29.85 "Hg10 mi
10:56 pm85 °FPassing clouds.5 mph79%29.86 "Hg10 mi
9:56 pm86 °FPassing clouds.7 mph77%29.84 "Hg10 mi
8:56 pm87 °FClear.3 mph71%29.83 "Hg10 mi
Weather by CustomWeather, © 2020

See weather overview